{"data":{"norad_id":55275,"intl_designator":"2023-010G","name":"STARLINK-5260","alt_names":[],"object_type":"PAYLOAD","status":"ACTIVE","operator":null,"country":"US","launch_date":"2023-01-19","launch_site_code":"AFWTR","launch_vehicle":null,"mission":null,"orbit_class":"UNKNOWN","rcs_meters":null,"size_class":null,"mass_kg":null,"dimensions":null,"purposes":["comms"],"wikipedia_slug":null,"has_3d_model":false,"image_url":null,"decayed_at":null,"tle_current":{"epoch":"2026-05-24T13:51:31.483872Z","epoch_age_seconds":115575,"freshness":"FRESH","line1":"1 55275U 23010G   26144.57744773  .00000835  00000+0  77766-4 0  9993","line2":"2 55275  70.0002 193.2285 0003541 268.0318  92.0436 14.98333067184647","mean_motion":14.98333067,"eccentricity":0.0003541,"inclination_deg":70.0002,"raan_deg":193.2285,"arg_perigee_deg":268.0318,"mean_anomaly_deg":92.0436,"bstar":7.7766e-5,"rev_number":18464,"period_min":96.106802400297,"perigee_km":569.58534657184,"apogee_km":574.50746646034,"semimajor_km":6950.1834065161,"source":"CELESTRAK","updated_at":"2026-05-25T13:38:17.731776Z"}}}